sat.trackr.live / text

‹ back to catalog

STARLINK-11274 [DTC]

NORAD 61001 · 2024-158M

PAYLOAD ACTIVE UNKNOWN

§ Identity

Operator
Country
US
Launch date
2024-09-05
Launch site
AFETR
Launch vehicle
Mass (kg)
RCS (m²)

Purposes: comms

External: N2YO · Heavens-Above · Gunter

§ Orbital elements

Epoch: 2026-09-21T17:06:26.124768Z

Period
91.74 min
Inclination
53.1602°
Eccentricity
0.0000585
Mean motion
15.69702074 rev/d
Perigee alt
359.4 km
Apogee alt
360.1 km
Semi-major
6,737.9 km
B*
5.4560e-6
RAAN
34.8382°
Arg perigee
58.9288°
Mean anomaly
301.1788°
Rev number
11,837

§ Raw data

STARLINK-11274 [DTC]1 61001U 24158M   26264.71280237  .00000073  00000+0  54560-5 0  99922 61001  53.1602  34.8382 0000585  58.9288 301.1788 15.69702074118372

JSON: /api/v1/satellites/61001 · /tle

For live sub-satellite position, see the globe view (requires WebGL).

§ Visibility from observer

Set your observer location to see the next 7 days of passes ≥ 10°. The values pass through the URL so the page stays shareable.

No JS? Fill the form by hand. The geolocation button needs JavaScript.